TimeMST,TemperatureF,Dew PointF,Humidity,Sea Level PressureIn,VisibilityMPH,Wind Direction,Wind SpeedMPH,Gust SpeedMPH,PrecipitationIn,Events,Conditions,WindDirDegrees,DateUTC
12:53 AM,30.9,21.9,69,29.97,10.0,Calm,Calm,-,N/A,,Scattered Clouds,0,2012-11-18 07:53:00
1:53 AM,27.0,21.0,78,29.96,10.0,Calm,Calm,-,N/A,,Partly Cloudy,0,2012-11-18 08:53:00
2:53 AM,28.9,21.9,75,29.95,10.0,Calm,Calm,-,N/A,,Scattered Clouds,0,2012-11-18 09:53:00
3:53 AM,33.1,23.0,66,29.99,10.0,Calm,Calm,-,N/A,,Overcast,0,2012-11-18 10:53:00
4:28 AM,32.0,26.6,80,30.14,3.0,Calm,Calm,-,0.00,Snow,Light Snow,0,2012-11-18 11:28:00
4:33 AM,32.0,26.6,80,30.15,1.8,Calm,Calm,-,0.00,Snow,Light Snow,0,2012-11-18 11:33:00
4:36 AM,30.2,26.6,86,30.15,1.5,Calm,Calm,-,0.00,Snow,Light Snow,0,2012-11-18 11:36:00
4:44 AM,30.2,28.4,93,30.15,1.0,Calm,Calm,-,0.00,Snow,Light Snow,0,2012-11-18 11:44:00
4:53 AM,30.9,28.0,89,30.04,1.0,Calm,Calm,-,0.01,Snow,Light Snow,0,2012-11-18 11:53:00
5:00 AM,30.2,28.4,93,30.15,0.8,Calm,Calm,-,0.01,Snow,Light Snow,0,2012-11-18 12:00:00
5:12 AM,30.2,28.4,93,30.14,1.2,SSE,4.6,-,0.02,Snow,Light Snow,150,2012-11-18 12:12:00
5:22 AM,30.2,30.2,100,30.14,2.0,South,4.6,-,0.02,Snow,Light Snow,170,2012-11-18 12:22:00
5:30 AM,30.2,30.2,100,30.14,1.2,Calm,Calm,-,0.03,Snow,Light Snow,0,2012-11-18 12:30:00
5:37 AM,30.2,28.4,93,30.14,2.0,SSW,4.6,-,0.03,Snow,Light Snow,210,2012-11-18 12:37:00
5:45 AM,30.2,28.4,93,30.14,7.0,South,6.9,-,0.03,Snow,Light Snow,180,2012-11-18 12:45:00
5:53 AM,30.0,28.9,96,30.06,8.0,South,5.8,-,0.03,Snow,Light Snow,190,2012-11-18 12:53:00
6:53 AM,30.0,28.0,92,30.06,10.0,SSE,3.5,-,0.00,,Mostly Cloudy,150,2012-11-18 13:53:00
7:53 AM,28.0,28.0,100,30.10,10.0,Calm,Calm,-,N/A,,Mostly Cloudy,0,2012-11-18 14:53:00
8:53 AM,32.0,28.9,88,30.09,10.0,South,3.5,-,N/A,,Mostly Cloudy,180,2012-11-18 15:53:00
9:53 AM,35.1,30.9,85,30.05,10.0,NNW,5.8,-,N/A,,Mostly Cloudy,330,2012-11-18 16:53:00
10:53 AM,39.9,33.1,77,30.04,10.0,NNW,8.1,-,N/A,,Mostly Cloudy,340,2012-11-18 17:53:00
11:53 AM,42.1,30.9,65,30.02,10.0,NNW,6.9,-,N/A,,Mostly Cloudy,340,2012-11-18 18:53:00
12:53 PM,43.0,30.9,62,30.00,10.0,North,6.9,-,N/A,,Mostly Cloudy,360,2012-11-18 19:53:00
1:53 PM,44.1,28.9,55,30.00,10.0,North,5.8,-,N/A,,Mostly Cloudy,10,2012-11-18 20:53:00
2:53 PM,46.0,28.0,50,29.99,10.0,NNE,5.8,-,N/A,,Overcast,30,2012-11-18 21:53:00
3:53 PM,43.0,30.0,60,30.01,10.0,Calm,Calm,-,N/A,,Mostly Cloudy,0,2012-11-18 22:53:00
4:53 PM,39.0,28.9,67,30.05,10.0,Calm,Calm,-,N/A,,Overcast,0,2012-11-18 23:53:00
5:53 PM,33.1,26.1,75,30.10,10.0,SW,3.5,-,N/A,,Clear,230,2012-11-19 00:53:00
6:53 PM,33.1,25.0,72,30.12,10.0,South,6.9,-,N/A,,Partly Cloudy,180,2012-11-19 01:53:00
7:53 PM,30.9,24.1,76,30.15,10.0,SSW,5.8,-,N/A,,Scattered Clouds,200,2012-11-19 02:53:00
8:53 PM,28.0,23.0,81,30.17,10.0,South,3.5,-,N/A,,Partly Cloudy,170,2012-11-19 03:53:00
9:53 PM,30.0,21.9,72,30.14,10.0,SSW,5.8,-,N/A,,Partly Cloudy,210,2012-11-19 04:53:00
10:53 PM,27.0,21.0,78,30.14,10.0,SSE,4.6,-,N/A,,Scattered Clouds,160,2012-11-19 05:53:00
11:53 PM,30.9,21.9,69,30.14,10.0,Calm,Calm,-,N/A,,Overcast,0,2012-11-19 06:53:00